| time (UTC) | temp F | wind direction | speed MPH | gust MPH | rain 1hr in | rain 24hr in | rain mn in | humidity % | barometer mb |
| 20260831214313 | 90 | 192 | 0.0 | 1.0 | 0.00 | 0.00 | 0.00 | 61 | 1019.7 |
| 20260831213813 | 90 | 192 | 0.0 | 1.0 | 0.00 | 0.00 | 0.00 | 60 | 1019.7 |
| 20260831213316 | 90 | 192 | 0.0 | 1.0 | 0.00 | 0.00 | 0.00 | 58 | 1019.8 |
| 20260831212811 | 90 | 192 | 0.0 | 1.0 | 0.00 | 0.00 | 0.00 | 57 | 1019.8 |
| 20260831212313 | 90 | 192 | 0.0 | 1.0 | 0.00 | 0.00 | 0.00 | 59 | 1020.0 |
| 20260831211958 | 90 | 191 | 0.0 | 2.0 | 0.00 | 0.00 | 0.00 | 56 | 1019.9 |
| 20260831211921 | 90 | 192 | 0.0 | 1.0 | 0.00 | 0.00 | 0.00 | 59 | 1019.9 |
| 20260831210809 | 90 | 190 | 0.0 | 2.0 | 0.00 | 0.00 | 0.00 | 56 | 1019.9 |
| 20260831210309 | 90 | 183 | 0.0 | 1.0 | 0.00 | 0.00 | 0.00 | 56 | 1019.9 |
| 20260831205809 | 91 | 185 | 0.0 | 1.0 | 0.00 | 0.00 | 0.00 | 56 | 1019.8 |
| 20260831205308 | 91 | 189 | 0.0 | 1.0 | 0.00 | 0.00 | 0.00 | 56 | 1020.0 |
| 20260831204808 | 92 | 242 | 0.0 | 1.0 | 0.00 | 0.00 | 0.00 | 56 | 1020.0 |
| 20260831204307 | 92 | 242 | 0.0 | 1.0 | 0.00 | 0.00 | 0.00 | 56 | 1020.0 |
| 20260831203802 | 92 | 199 | 0.0 | 1.0 | 0.00 | 0.00 | 0.00 | 55 | 1020.0 |
| 20260831203305 | 93 | 222 | 0.0 | 2.0 | 0.00 | 0.00 | 0.00 | 54 | 1020.0 |
| 20260831202803 | 93 | 222 | 1.0 | 3.0 | 0.00 | 0.00 | 0.00 | 53 | 1020.1 |
| 20260831202305 | 93 | 165 | 1.0 | 3.0 | 0.00 | 0.00 | 0.00 | 54 | 1020.1 |
| 20260831201806 | 93 | 175 | 2.0 | 4.0 | 0.00 | 0.00 | 0.00 | 54 | 1020.2 |
| 20260831201646 | 94 | 117 | 2.0 | 4.0 | 0.00 | 0.00 | 0.00 | 52 | 1020.3 |
| 20260831201045 | 94 | 136 | 2.0 | 3.0 | 0.00 | 0.00 | 0.00 | 51 | 1020.3 |
| 20260831200309 | 95 | 111 | 1.0 | 3.0 | 0.00 | 0.00 | 0.00 | 51 | 1020.4 |
| 20260831200130 | 96 | 221 | 1.0 | 3.0 | 0.00 | 0.00 | 0.00 | 49 | 1020.3 |
| 20260831195306 | 95 | 261 | 1.0 | 3.0 | 0.00 | 0.00 | 0.00 | 47 | 1020.3 |
| 20260831195109 | 95 | 263 | 1.0 | 3.0 | 0.00 | 0.00 | 0.00 | 48 | 1020.5 |
| 20260831194300 | 94 | 261 | 1.0 | 3.0 | 0.00 | 0.00 | 0.00 | 47 | 1020.6 |
| 20260831193801 | 95 | 193 | 1.0 | 3.0 | 0.00 | 0.00 | 0.00 | 47 | 1020.6 |
| 20260831193300 | 94 | 315 | 0.0 | 2.0 | 0.00 | 0.00 | 0.00 | 48 | 1020.6 |
| 20260831192801 | 93 | 105 | 1.0 | 2.0 | 0.00 | 0.00 | 0.00 | 50 | 1020.6 |
| 20260831192305 | 93 | 105 | 1.0 | 3.0 | 0.00 | 0.00 | 0.00 | 49 | 1020.6 |
| 20260831191801 | 93 | 78 | 1.0 | 3.0 | 0.00 | 0.00 | 0.00 | 50 | 1020.6 |
| 20260831191303 | 94 | 49 | 1.0 | 2.0 | 0.00 | 0.00 | 0.00 | 49 | 1020.7 |
| 20260831190805 | 94 | 49 | 1.0 | 4.0 | 0.00 | 0.00 | 0.00 | 50 | 1020.6 |
| 20260831190256 | 95 | 41 | 2.0 | 4.0 | 0.00 | 0.00 | 0.00 | 49 | 1020.6 |
| 20260831185823 | 94 | 44 | 1.0 | 3.0 | 0.00 | 0.00 | 0.00 | 49 | 1020.8 |
| 20260831185806 | 95 | 59 | 2.0 | 4.0 | 0.00 | 0.00 | 0.00 | 51 | 1020.7 |
| 20260831185355 | 94 | 115 | 1.0 | 3.0 | 0.00 | 0.00 | 0.00 | 50 | 1020.7 |
| 20260831184234 | 94 | 196 | 1.0 | 6.0 | 0.00 | 0.00 | 0.00 | 50 | 1020.9 |
| 20260831183733 | 93 | 9 | 1.0 | 6.0 | 0.00 | 0.00 | 0.00 | 50 | 1021.0 |
| 20260831183231 | 92 | 5 | 1.0 | 2.0 | 0.00 | 0.00 | 0.00 | 52 | 1021.1 |
| 20260831182730 | 92 | 42 | 1.0 | 3.0 | 0.00 | 0.00 | 0.00 | 50 | 1021.2 |
| 20260831182232 | 91 | 0 | 1.0 | 4.0 | 0.00 | 0.00 | 0.00 | 52 | 1021.3 |
| 20260831181729 | 91 | 54 | 1.0 | 5.0 | 0.00 | 0.00 | 0.00 | 53 | 1021.4 |
| 20260831181555 | 91 | 333 | 1.0 | 5.0 | 0.00 | 0.00 | 0.00 | 53 | 1021.4 |
| 20260831180729 | 91 | 9 | 1.0 | 4.0 | 0.00 | 0.00 | 0.00 | 56 | 1021.4 |
| 20260831180233 | 91 | 48 | 2.0 | 4.0 | 0.00 | 0.00 | 0.00 | 54 | 1021.5 |
| 20260831175732 | 92 | 68 | 1.0 | 2.0 | 0.00 | 0.00 | 0.00 | 55 | 1021.4 |
| 20260831175234 | 92 | 133 | 1.0 | 3.0 | 0.00 | 0.00 | 0.00 | 56 | 1021.6 |
| 20260831174734 | 91 | 333 | 1.0 | 4.0 | 0.00 | 0.00 | 0.00 | 57 | 1021.6 |
| 20260831174234 | 90 | 335 | 2.0 | 5.0 | 0.00 | 0.00 | 0.00 | 56 | 1021.6 |
| 20260831173730 | 90 | 355 | 2.0 | 5.0 | 0.00 | 0.00 | 0.00 | 59 | 1021.7 |
| 20260831173230 | 89 | 104 | 2.0 | 5.0 | 0.00 | 0.00 | 0.00 | 59 | 1021.7 |
| 20260831172730 | 90 | 65 | 2.0 | 5.0 | 0.00 | 0.00 | 0.00 | 59 | 1021.6 |
| 20260831172603 | 90 | 76 | 1.0 | 3.0 | 0.00 | 0.00 | 0.00 | 59 | 1021.6 |
| 20260831171729 | 90 | 334 | 2.0 | 5.0 | 0.00 | 0.00 | 0.00 | 60 | 1021.8 |
| 20260831171555 | 90 | 216 | 2.0 | 5.0 | 0.00 | 0.00 | 0.00 | 59 | 1021.8 |
| 20260831170728 | 89 | 86 | 1.0 | 3.0 | 0.00 | 0.00 | 0.00 | 58 | 1021.8 |
| 20260831170230 | 89 | 71 | 1.0 | 4.0 | 0.00 | 0.00 | 0.00 | 60 | 1021.8 |
| 20260831170221 | 88 | 55 | 2.0 | 6.0 | 0.00 | 0.00 | 0.00 | 61 | 1022.0 |
| 20260831170216 | 88 | 109 | 2.0 | 6.0 | 0.00 | 0.00 | 0.00 | 61 | 1021.9 |
| 20260831164731 | 88 | 69 | 1.0 | 4.0 | 0.00 | 0.00 | 0.00 | 60 | 1022.0 |
| 20260831164229 | 88 | 51 | 1.0 | 3.0 | 0.00 | 0.00 | 0.00 | 61 | 1022.0 |
| 20260831163730 | 87 | 351 | 1.0 | 3.0 | 0.00 | 0.00 | 0.00 | 62 | 1022.0 |
| 20260831163230 | 87 | 54 | 1.0 | 4.0 | 0.00 | 0.00 | 0.00 | 65 | 1022.0 |
| 20260831162730 | 86 | 225 | 2.0 | 4.0 | 0.00 | 0.00 | 0.00 | 64 | 1022.2 |
| 20260831162229 | 86 | 47 | 1.0 | 4.0 | 0.00 | 0.00 | 0.00 | 62 | 1022.2 |
| 20260831161730 | 86 | 355 | 1.0 | 3.0 | 0.00 | 0.00 | 0.00 | 66 | 1022.2 |
| 20260831161229 | 85 | 258 | 1.0 | 3.0 | 0.00 | 0.00 | 0.00 | 66 | 1022.3 |
| 20260831160729 | 85 | 207 | 1.0 | 4.0 | 0.00 | 0.00 | 0.00 | 67 | 1022.3 |
| 20260831160231 | 84 | 350 | 1.0 | 4.0 | 0.00 | 0.00 | 0.00 | 67 | 1022.3 |
| 20260831160127 | 83 | 198 | 1.0 | 5.0 | 0.00 | 0.00 | 0.00 | 71 | 1022.2 |
| 20260831155736 | 84 | 83 | 0.0 | 3.0 | 0.00 | 0.00 | 0.00 | 69 | 1022.2 |
| 20260831155332 | 84 | 146 | 1.0 | 5.0 | 0.00 | 0.00 | 0.00 | 70 | 1022.3 |
| 20260831154237 | 83 | 49 | 1.0 | 3.0 | 0.00 | 0.00 | 0.00 | 72 | 1022.3 |
| 20260831154053 | 83 | 246 | 1.0 | 3.0 | 0.00 | 0.00 | 0.00 | 73 | 1022.3 |
| 20260831153234 | 83 | 169 | 1.0 | 3.0 | 0.00 | 0.00 | 0.00 | 74 | 1022.3 |
| 20260831152729 | 82 | 207 | 1.0 | 3.0 | 0.00 | 0.00 | 0.00 | 75 | 1022.3 |
| 20260831152230 | 82 | 355 | 1.0 | 6.0 | 0.00 | 0.00 | 0.00 | 75 | 1022.4 |
| 20260831151730 | 82 | 28 | 1.0 | 6.0 | 0.00 | 0.00 | 0.00 | 75 | 1022.3 |
| 20260831151546 | 81 | 62 | 1.0 | 3.0 | 0.00 | 0.00 | 0.00 | 76 | 1022.3 |
| 20260831151050 | 81 | 224 | 1.0 | 3.0 | 0.00 | 0.00 | 0.00 | 76 | 1022.4 |
| 20260831150234 | 81 | 155 | 1.0 | 7.0 | 0.00 | 0.00 | 0.00 | 77 | 1022.4 |
| 20260831145734 | 80 | 242 | 2.0 | 7.0 | 0.00 | 0.00 | 0.00 | 78 | 1022.4 |
| 20260831145235 | 80 | 344 | 1.0 | 5.0 | 0.00 | 0.00 | 0.00 | 78 | 1022.4 |
| 20260831144735 | 80 | 301 | 1.0 | 5.0 | 0.00 | 0.00 | 0.00 | 80 | 1022.4 |
| 20260831144235 | 79 | 259 | 1.0 | 5.0 | 0.00 | 0.00 | 0.00 | 81 | 1022.4 |
| 20260831143734 | 79 | 274 | 1.0 | 7.0 | 0.00 | 0.00 | 0.00 | 82 | 1022.4 |
| 20260831143230 | 79 | 183 | 2.0 | 7.0 | 0.00 | 0.00 | 0.00 | 83 | 1022.3 |
| 20260831142730 | 78 | 192 | 2.0 | 7.0 | 0.00 | 0.00 | 0.00 | 83 | 1022.3 |
| 20260831142225 | 78 | 261 | 2.0 | 8.0 | 0.00 | 0.00 | 0.00 | 85 | 1022.2 |
| 20260831141726 | 77 | 237 | 1.0 | 8.0 | 0.00 | 0.00 | 0.00 | 86 | 1022.2 |
| 20260831141224 | 77 | 154 | 1.0 | 4.0 | 0.00 | 0.00 | 0.00 | 88 | 1022.3 |
| 20260831140724 | 76 | 306 | 1.0 | 4.0 | 0.00 | 0.00 | 0.00 | 89 | 1022.3 |
| 20260831140225 | 76 | 252 | 1.0 | 4.0 | 0.00 | 0.00 | 0.00 | 90 | 1022.3 |
| 20260831135721 | 75 | 196 | 1.0 | 3.0 | 0.00 | 0.00 | 0.00 | 92 | 1022.3 |
| 20260831135224 | 75 | 314 | 1.0 | 4.0 | 0.00 | 0.00 | 0.00 | 94 | 1022.2 |
| 20260831134718 | 75 | 281 | 1.0 | 5.0 | 0.00 | 0.00 | 0.00 | 95 | 1022.2 |
| 20260831134215 | 74 | 239 | 1.0 | 5.0 | 0.00 | 0.00 | 0.00 | 95 | 1022.1 |
| 20260831133713 | 74 | 240 | 1.0 | 4.0 | 0.00 | 0.00 | 0.00 | 96 | 1022.1 |
| 20260831133210 | 74 | 225 | 1.0 | 4.0 | 0.00 | 0.00 | 0.00 | 96 | 1022.0 |
| 20260831132712 | 73 | 350 | 1.0 | 5.0 | 0.00 | 0.00 | 0.00 | 96 | 1022.0 |
| 20260831132211 | 73 | 338 | 1.0 | 5.0 | 0.00 | 0.00 | 0.00 | 96 | 1022.1 |
| 20260831131710 | 73 | 240 | 1.0 | 5.0 | 0.00 | 0.00 | 0.00 | 96 | 1022.1 |
| 20260831131209 | 72 | 256 | 1.0 | 5.0 | 0.00 | 0.00 | 0.00 | 97 | 1022.0 |
| 20260831131036 | 72 | 294 | 1.0 | 4.0 | 0.00 | 0.00 | 0.00 | 96 | 1022.1 |
| 20260831130211 | 72 | 254 | 0.0 | 3.0 | 0.00 | 0.00 | 0.00 | 97 | 1022.0 |
| 20260831125707 | 72 | 188 | 0.0 | 3.0 | 0.00 | 0.00 | 0.00 | 96 | 1022.1 |
| 20260831125205 | 71 | 0 | 0.0 | 1.0 | 0.00 | 0.00 | 0.00 | 97 | 1022.1 |
| 20260831124704 | 71 | 284 | 0.0 | 2.0 | 0.00 | 0.00 | 0.00 | 96 | 1022.1 |
| 20260831124209 | 71 | 311 | 0.0 | 2.0 | 0.00 | 0.00 | 0.00 | 96 | 1022.0 |
| 20260831123705 | 70 | 128 | 0.0 | 1.0 | 0.00 | 0.00 | 0.00 | 96 | 1022.0 |
| 20260831123204 | 70 | 128 | 0.0 | 1.0 | 0.00 | 0.00 | 0.00 | 96 | 1021.9 |
| 20260831122947 | 69 | 128 | 0.0 | 1.0 | 0.00 | 0.00 | 0.00 | 96 | 1021.9 |
| 20260831122203 | 69 | 128 | 0.0 | 0.0 | 0.00 | 0.00 | 0.00 | 96 | 1022.0 |
| 20260831121700 | 69 | 128 | 0.0 | 0.0 | 0.00 | 0.00 | 0.00 | 95 | 1022.0 |
| 20260831121159 | 69 | 128 | 0.0 | 0.0 | 0.00 | 0.00 | 0.00 | 95 | 1022.0 |
| 20260831120701 | 68 | 128 | 0.0 | 0.0 | 0.00 | 0.00 | 0.00 | 95 | 1021.9 |
| 20260831120154 | 68 | 128 | 0.0 | 0.0 | 0.00 | 0.00 | 0.00 | 95 | 1022.0 |
| 20260831120006 | 68 | 128 | 0.0 | 0.0 | 0.00 | 0.00 | 0.00 | 95 | 1022.0 |
| 20260831115154 | 68 | 128 | 0.0 | 0.0 | 0.00 | 0.00 | 0.00 | 95 | 1022.0 |
| 20260831114649 | 68 | 128 | 0.0 | 0.0 | 0.00 | 0.00 | 0.00 | 95 | 1022.0 |
| 20260831114147 | 68 | 128 | 0.0 | 0.0 | 0.00 | 0.00 | 0.00 | 95 | 1021.9 |
| 20260831113650 | 68 | 128 | 0.0 | 0.0 | 0.00 | 0.00 | 0.00 | 95 | 1021.9 |
| 20260831113146 | 68 | 128 | 0.0 | 0.0 | 0.00 | 0.00 | 0.00 | 95 | 1021.9 |
| 20260831112646 | 68 | 128 | 0.0 | 0.0 | 0.00 | 0.00 | 0.00 | 95 | 1021.9 |
| 20260831112143 | 68 | 128 | 0.0 | 0.0 | 0.00 | 0.00 | 0.00 | 94 | 1021.8 |
| 20260831111640 | 68 | 128 | 0.0 | 0.0 | 0.00 | 0.00 | 0.00 | 94 | 1021.8 |
| 20260831111359 | 68 | 128 | 0.0 | 0.0 | 0.00 | 0.00 | 0.00 | 94 | 1021.8 |
| 20260831111138 | 68 | 128 | 0.0 | 0.0 | 0.00 | 0.00 | 0.00 | 94 | 1021.8 |
| 20260831110748 | 68 | 128 | 0.0 | 1.0 | 0.00 | 0.00 | 0.00 | 94 | 1021.8 |
| 20260831110729 | 68 | 128 | 0.0 | 0.0 | 0.00 | 0.00 | 0.00 | 94 | 1021.7 |
| 20260831105637 | 68 | 128 | 0.0 | 1.0 | 0.00 | 0.00 | 0.00 | 94 | 1021.8 |
| 20260831105130 | 68 | 128 | 0.0 | 0.0 | 0.00 | 0.00 | 0.00 | 94 | 1021.7 |
| 20260831104631 | 68 | 128 | 0.0 | 0.0 | 0.00 | 0.00 | 0.00 | 94 | 1021.7 |
| 20260831104131 | 68 | 128 | 0.0 | 0.0 | 0.00 | 0.00 | 0.00 | 94 | 1021.7 |
| 20260831103630 | 68 | 128 | 0.0 | 0.0 | 0.00 | 0.00 | 0.00 | 94 | 1021.6 |
| 20260831103443 | 68 | 128 | 0.0 | 0.0 | 0.00 | 0.00 | 0.00 | 94 | 1021.7 |
| 20260831102629 | 68 | 128 | 0.0 | 0.0 | 0.00 | 0.00 | 0.00 | 94 | 1021.5 |
| 20260831102127 | 68 | 128 | 0.0 | 0.0 | 0.00 | 0.00 | 0.00 | 94 | 1021.6 |
| 20260831101617 | 68 | 128 | 0.0 | 0.0 | 0.00 | 0.00 | 0.00 | 94 | 1021.5 |
| 20260831101446 | 68 | 128 | 0.0 | 0.0 | 0.00 | 0.00 | 0.00 | 94 | 1021.5 |
| 20260831100614 | 68 | 128 | 0.0 | 0.0 | 0.00 | 0.00 | 0.00 | 94 | 1021.6 |
| 20260831100427 | 68 | 128 | 0.0 | 0.0 | 0.00 | 0.00 | 0.00 | 94 | 1021.5 |
| 20260831095612 | 68 | 128 | 0.0 | 0.0 | 0.00 | 0.00 | 0.00 | 94 | 1021.5 |
| 20260831095112 | 68 | 128 | 0.0 | 0.0 | 0.00 | 0.00 | 0.00 | 94 | 1021.4 |
| 20260831094610 | 68 | 128 | 0.0 | 0.0 | 0.00 | 0.00 | 0.00 | 94 | 1021.4 |
| 20260831094110 | 68 | 128 | 0.0 | 0.0 | 0.00 | 0.00 | 0.00 | 94 | 1021.3 |
| 20260831093612 | 69 | 128 | 0.0 | 0.0 | 0.00 | 0.00 | 0.00 | 94 | 1021.4 |
| 20260831093421 | 69 | 128 | 0.0 | 0.0 | 0.00 | 0.00 | 0.00 | 94 | 1021.3 |
| 20260831092618 | 69 | 128 | 0.0 | 0.0 | 0.00 | 0.00 | 0.00 | 94 | 1021.2 |
| 20260831092114 | 69 | 128 | 0.0 | 0.0 | 0.00 | 0.00 | 0.00 | 94 | 1021.3 |
| 20260831091610 | 69 | 128 | 0.0 | 0.0 | 0.00 | 0.00 | 0.00 | 93 | 1021.3 |
| 20260831091110 | 69 | 128 | 0.0 | 0.0 | 0.00 | 0.00 | 0.00 | 93 | 1021.2 |
| 20260831090607 | 69 | 128 | 0.0 | 0.0 | 0.00 | 0.00 | 0.00 | 93 | 1021.2 |
| 20260831090104 | 69 | 128 | 0.0 | 0.0 | 0.00 | 0.00 | 0.00 | 93 | 1021.2 |
| 20260831085605 | 69 | 128 | 0.0 | 0.0 | 0.00 | 0.00 | 0.00 | 93 | 1021.2 |
| 20260831085105 | 69 | 128 | 0.0 | 0.0 | 0.00 | 0.00 | 0.00 | 93 | 1021.2 |
| 20260831084602 | 69 | 128 | 0.0 | 0.0 | 0.00 | 0.00 | 0.00 | 93 | 1021.2 |
| 20260831084106 | 69 | 128 | 0.0 | 0.0 | 0.00 | 0.00 | 0.00 | 93 | 1021.1 |
| 20260831083604 | 69 | 128 | 0.0 | 0.0 | 0.00 | 0.00 | 0.00 | 93 | 1021.2 |
| 20260831083100 | 69 | 128 | 0.0 | 0.0 | 0.00 | 0.00 | 0.00 | 93 | 1021.2 |
| 20260831082558 | 69 | 128 | 0.0 | 0.0 | 0.00 | 0.00 | 0.00 | 93 | 1021.2 |
| 20260831082057 | 69 | 128 | 0.0 | 0.0 | 0.00 | 0.00 | 0.00 | 93 | 1021.2 |
| 20260831081555 | 69 | 128 | 0.0 | 0.0 | 0.00 | 0.00 | 0.00 | 93 | 1021.1 |
| 20260831081051 | 69 | 128 | 0.0 | 0.0 | 0.00 | 0.00 | 0.00 | 93 | 1021.0 |
| 20260831080550 | 69 | 128 | 0.0 | 0.0 | 0.00 | 0.00 | 0.00 | 93 | 1021.1 |
| 20260831080359 | 69 | 128 | 0.0 | 0.0 | 0.00 | 0.00 | 0.00 | 93 | 1021.1 |
| 20260831075554 | 69 | 128 | 0.0 | 0.0 | 0.00 | 0.00 | 0.00 | 93 | 1021.2 |
| 20260831075050 | 69 | 128 | 0.0 | 0.0 | 0.00 | 0.00 | 0.00 | 93 | 1021.1 |
| 20260831074550 | 69 | 128 | 0.0 | 0.0 | 0.00 | 0.00 | 0.00 | 93 | 1021.2 |
| 20260831074048 | 69 | 128 | 0.0 | 0.0 | 0.00 | 0.00 | 0.00 | 93 | 1021.2 |
| 20260831073547 | 70 | 128 | 0.0 | 0.0 | 0.00 | 0.00 | 0.00 | 92 | 1021.2 |
| 20260831073048 | 70 | 128 | 0.0 | 0.0 | 0.00 | 0.00 | 0.00 | 92 | 1021.2 |
| 20260831072548 | 70 | 128 | 0.0 | 0.0 | 0.00 | 0.00 | 0.00 | 92 | 1021.1 |
| 20260831072049 | 70 | 128 | 0.0 | 0.0 | 0.00 | 0.00 | 0.00 | 92 | 1021.1 |
| 20260831071549 | 70 | 128 | 0.0 | 0.0 | 0.00 | 0.00 | 0.00 | 92 | 1021.2 |
| 20260831071047 | 70 | 128 | 0.0 | 0.0 | 0.00 | 0.00 | 0.00 | 92 | 1021.2 |
| 20260831070632 | 70 | 128 | 0.0 | 0.0 | 0.00 | 0.00 | 0.00 | 92 | 1021.3 |
| 20260831070612 | 70 | 128 | 0.0 | 0.0 | 0.00 | 0.00 | 0.00 | 92 | 1021.2 |
| 20260831070202 | 70 | 128 | 0.0 | 0.0 | 0.00 | 0.00 | 0.00 | 92 | 1021.3 |
| 20260831065045 | 70 | 128 | 0.0 | 0.0 | 0.00 | 0.00 | 0.00 | 92 | 1021.4 |
| 20260831064546 | 70 | 128 | 0.0 | 0.0 | 0.00 | 0.00 | 0.00 | 92 | 1021.4 |
| 20260831064044 | 70 | 128 | 0.0 | 0.0 | 0.00 | 0.00 | 0.00 | 92 | 1021.4 |
| 20260831063541 | 70 | 128 | 0.0 | 0.0 | 0.00 | 0.00 | 0.00 | 92 | 1021.4 |
| 20260831063040 | 70 | 128 | 0.0 | 0.0 | 0.00 | 0.00 | 0.00 | 92 | 1021.4 |
| 20260831062542 | 70 | 128 | 0.0 | 0.0 | 0.00 | 0.00 | 0.00 | 91 | 1021.4 |
| 20260831062040 | 70 | 128 | 0.0 | 0.0 | 0.00 | 0.00 | 0.00 | 92 | 1021.4 |
| 20260831061541 | 71 | 128 | 0.0 | 0.0 | 0.00 | 0.00 | 0.00 | 91 | 1021.5 |
| 20260831061041 | 71 | 128 | 0.0 | 0.0 | 0.00 | 0.00 | 0.00 | 91 | 1021.5 |
| 20260831060540 | 71 | 128 | 0.0 | 0.0 | 0.00 | 0.00 | 0.00 | 91 | 1021.6 |
| 20260831060040 | 71 | 128 | 0.0 | 0.0 | 0.00 | 0.00 | 0.00 | 91 | 1021.6 |
| 20260831055540 | 71 | 128 | 0.0 | 0.0 | 0.00 | 0.00 | 0.00 | 91 | 1021.5 |
| 20260831055039 | 71 | 128 | 0.0 | 0.0 | 0.00 | 0.00 | 0.00 | 91 | 1021.4 |
| 20260831054540 | 71 | 128 | 0.0 | 0.0 | 0.00 | 0.00 | 0.00 | 90 | 1021.4 |
| 20260831054039 | 71 | 128 | 0.0 | 0.0 | 0.00 | 0.00 | 0.00 | 91 | 1021.4 |
| 20260831053539 | 71 | 128 | 0.0 | 0.0 | 0.00 | 0.00 | 0.00 | 90 | 1021.4 |
| 20260831053040 | 71 | 128 | 0.0 | 0.0 | 0.00 | 0.00 | 0.00 | 90 | 1021.4 |
| 20260831052540 | 71 | 128 | 0.0 | 0.0 | 0.00 | 0.00 | 0.00 | 90 | 1021.4 |
| 20260831052042 | 71 | 128 | 0.0 | 0.0 | 0.00 | 0.00 | 0.00 | 90 | 1021.5 |
| 20260831051540 | 71 | 128 | 0.0 | 0.0 | 0.00 | 0.00 | 0.00 | 90 | 1021.5 |
| 20260831051041 | 71 | 128 | 0.0 | 0.0 | 0.00 | 0.00 | 0.00 | 90 | 1021.4 |
| 20260831050850 | 71 | 128 | 0.0 | 0.0 | 0.00 | 0.00 | 0.00 | 90 | 1021.4 |
| 20260831050037 | 71 | 128 | 0.0 | 0.0 | 0.00 | 0.00 | 0.00 | 90 | 1021.3 |
| 20260831045543 | 72 | 128 | 0.0 | 0.0 | 0.00 | 0.00 | 0.00 | 90 | 1021.4 |
| 20260831045030 | 72 | 128 | 0.0 | 0.0 | 0.00 | 0.00 | 0.00 | 90 | 1021.5 |
| 20260831044546 | 72 | 128 | 0.0 | 0.0 | 0.00 | 0.00 | 0.00 | 90 | 1021.6 |
| 20260831044542 | 72 | 128 | 0.0 | 0.0 | 0.00 | 0.00 | 0.00 | 90 | 1021.6 |
| 20260831044532 | 72 | 128 | 0.0 | 0.0 | 0.00 | 0.00 | 0.00 | 90 | 1021.6 |
| 20260831043232 | 72 | 128 | 0.0 | 0.0 | 0.00 | 0.00 | 0.00 | 90 | 1021.6 |
| 20260831043128 | 72 | 128 | 0.0 | 0.0 | 0.00 | 0.00 | 0.00 | 90 | 1021.7 |
| 20260831042002 | 72 | 128 | 0.0 | 0.0 | 0.00 | 0.00 | 0.00 | 89 | 1021.8 |
| 20260831041459 | 73 | 128 | 0.0 | 0.0 | 0.00 | 0.00 | 0.00 | 89 | 1021.7 |
| 20260831040958 | 73 | 128 | 0.0 | 0.0 | 0.00 | 0.00 | 0.00 | 88 | 1021.8 |
| 20260831040457 | 73 | 128 | 0.0 | 0.0 | 0.00 | 0.00 | 0.00 | 88 | 1021.7 |
| 20260831035954 | 73 | 128 | 0.0 | 0.0 | 0.00 | 0.00 | 0.00 | 88 | 1021.7 |
| 20260831035452 | 73 | 128 | 0.0 | 0.0 | 0.00 | 0.00 | 0.00 | 88 | 1021.8 |
| 20260831035313 | 73 | 128 | 0.0 | 0.0 | 0.00 | 0.00 | 0.00 | 88 | 1021.7 |
| 20260831034948 | 73 | 128 | 0.0 | 0.0 | 0.00 | 0.00 | 0.00 | 87 | 1021.8 |
| 20260831034943 | 73 | 128 | 0.0 | 0.0 | 0.00 | 0.00 | 0.00 | 88 | 1021.7 |
| 20260831033445 | 74 | 128 | 0.0 | 0.0 | 0.00 | 0.00 | 0.00 | 87 | 1021.9 |
| 20260831032943 | 74 | 128 | 0.0 | 0.0 | 0.00 | 0.00 | 0.00 | 87 | 1021.9 |
| 20260831032440 | 74 | 128 | 0.0 | 0.0 | 0.00 | 0.00 | 0.00 | 86 | 1022.0 |
| 20260831031940 | 74 | 128 | 0.0 | 0.0 | 0.00 | 0.00 | 0.00 | 86 | 1022.1 |
| 20260831031441 | 74 | 128 | 0.0 | 0.0 | 0.00 | 0.00 | 0.00 | 86 | 1022.1 |
| 20260831030938 | 74 | 128 | 0.0 | 0.0 | 0.00 | 0.00 | 0.00 | 86 | 1021.9 |
| 20260831030439 | 74 | 128 | 0.0 | 0.0 | 0.00 | 0.00 | 0.00 | 86 | 1021.9 |
| 20260831025945 | 74 | 128 | 0.0 | 0.0 | 0.00 | 0.00 | 0.00 | 85 | 1021.8 |
| 20260831025438 | 75 | 128 | 0.0 | 0.0 | 0.00 | 0.00 | 0.00 | 85 | 1021.9 |
| 20260831024938 | 75 | 128 | 0.0 | 0.0 | 0.00 | 0.00 | 0.00 | 85 | 1021.9 |
| 20260831024437 | 75 | 128 | 0.0 | 0.0 | 0.00 | 0.00 | 0.00 | 85 | 1022.0 |
| 20260831023938 | 75 | 128 | 0.0 | 0.0 | 0.00 | 0.00 | 0.00 | 84 | 1022.1 |
| 20260831023436 | 75 | 128 | 0.0 | 0.0 | 0.00 | 0.00 | 0.00 | 84 | 1022.0 |
| 20260831022938 | 75 | 128 | 0.0 | 0.0 | 0.00 | 0.00 | 0.00 | 84 | 1022.0 |
| 20260831022433 | 76 | 128 | 0.0 | 0.0 | 0.00 | 0.00 | 0.00 | 84 | 1022.0 |
| 20260831021932 | 76 | 128 | 0.0 | 0.0 | 0.00 | 0.00 | 0.00 | 83 | 1022.1 |
| 20260831021433 | 76 | 128 | 0.0 | 0.0 | 0.00 | 0.00 | 0.00 | 83 | 1022.0 |
| 20260831020930 | 76 | 128 | 0.0 | 0.0 | 0.00 | 0.00 | 0.00 | 83 | 1022.0 |
| 20260831020429 | 76 | 128 | 0.0 | 0.0 | 0.00 | 0.00 | 0.00 | 82 | 1021.9 |
| 20260831015932 | 76 | 128 | 0.0 | 0.0 | 0.00 | 0.00 | 0.00 | 83 | 1021.8 |
| 20260831015429 | 76 | 128 | 0.0 | 0.0 | 0.00 | 0.00 | 0.00 | 82 | 1021.9 |
| 20260831014933 | 76 | 128 | 0.0 | 0.0 | 0.00 | 0.00 | 0.00 | 82 | 1021.9 |
| 20260831014429 | 77 | 128 | 0.0 | 0.0 | 0.00 | 0.00 | 0.00 | 82 | 1021.9 |
| 20260831013928 | 77 | 128 | 0.0 | 0.0 | 0.00 | 0.00 | 0.00 | 81 | 1022.0 |
| 20260831013429 | 77 | 128 | 0.0 | 0.0 | 0.00 | 0.00 | 0.00 | 81 | 1021.9 |
| 20260831012929 | 77 | 128 | 0.0 | 0.0 | 0.00 | 0.00 | 0.00 | 81 | 1021.9 |
| 20260831012428 | 77 | 128 | 0.0 | 1.0 | 0.00 | 0.00 | 0.00 | 82 | 1022.0 |
| 20260831012300 | 77 | 128 | 0.0 | 1.0 | 0.00 | 0.00 | 0.00 | 81 | 1022.0 |
| 20260831011430 | 77 | 128 | 1.0 | 1.0 | 0.00 | 0.00 | 0.00 | 81 | 1021.8 |
| 20260831011246 | 77 | 128 | 1.0 | 1.0 | 0.00 | 0.00 | 0.00 | 81 | 1021.7 |
| 20260831010429 | 77 | 128 | 1.0 | 1.0 | 0.00 | 0.00 | 0.00 | 80 | 1021.7 |
| 20260831005924 | 78 | 128 | 1.0 | 1.0 | 0.00 | 0.00 | 0.00 | 80 | 1021.8 |
| 20260831005740 | 78 | 128 | 1.0 | 1.0 | 0.00 | 0.00 | 0.00 | 80 | 1021.6 |
| 20260831005226 | 78 | 128 | 0.0 | 1.0 | 0.00 | 0.00 | 0.00 | 79 | 1021.7 |
| 20260831004426 | 78 | 128 | 1.0 | 2.0 | 0.00 | 0.00 | 0.00 | 79 | 1021.6 |
| 20260831003923 | 78 | 128 | 1.0 | 2.0 | 0.00 | 0.00 | 0.00 | 78 | 1021.5 |
| 20260831003424 | 79 | 128 | 0.0 | 1.0 | 0.00 | 0.00 | 0.00 | 77 | 1021.5 |
| 20260831002928 | 80 | 128 | 0.0 | 1.0 | 0.00 | 0.00 | 0.00 | 76 | 1021.5 |
| 20260831002423 | 80 | 128 | 0.0 | 1.0 | 0.00 | 0.00 | 0.00 | 76 | 1021.4 |
| 20260831001928 | 80 | 128 | 0.0 | 1.0 | 0.00 | 0.00 | 0.00 | 75 | 1021.3 |
| 20260831001421 | 80 | 128 | 0.0 | 0.0 | 0.00 | 0.00 | 0.00 | 75 | 1021.3 |
| 20260831000912 | 80 | 128 | 0.0 | 1.0 | 0.00 | 0.00 | 0.00 | 75 | 1021.2 |
| 20260831000405 | 80 | 128 | 0.0 | 1.0 | 0.00 | 0.00 | 0.00 | 75 | 1021.3 |
| 20260830235905 | 80 | 128 | 0.0 | 1.0 | 0.00 | 0.00 | 0.00 | 75 | 1021.3 |
| 20260830235404 | 81 | 128 | 1.0 | 1.0 | 0.00 | 0.00 | 0.00 | 74 | 1021.3 |
| 20260830234904 | 81 | 128 | 1.0 | 1.0 | 0.00 | 0.00 | 0.00 | 74 | 1021.3 |
| 20260830234405 | 81 | 128 | 1.0 | 1.0 | 0.00 | 0.00 | 0.00 | 73 | 1021.3 |
| 20260830233901 | 81 | 128 | 1.0 | 2.0 | 0.00 | 0.00 | 0.00 | 73 | 1021.4 |
| 20260830233404 | 82 | 128 | 1.0 | 2.0 | 0.00 | 0.00 | 0.00 | 72 | 1021.4 |
| 20260830232901 | 82 | 128 | 1.0 | 2.0 | 0.00 | 0.00 | 0.00 | 72 | 1021.4 |
| 20260830232406 | 82 | 128 | 1.0 | 2.0 | 0.00 | 0.00 | 0.00 | 71 | 1021.4 |
| 20260830231904 | 82 | 128 | 1.0 | 2.0 | 0.00 | 0.00 | 0.00 | 70 | 1021.3 |
| 20260830231404 | 83 | 128 | 1.0 | 2.0 | 0.00 | 0.00 | 0.00 | 70 | 1021.3 |
| 20260830230904 | 83 | 128 | 1.0 | 2.0 | 0.00 | 0.00 | 0.00 | 70 | 1021.3 |
| 20260830230711 | 83 | 128 | 1.0 | 2.0 | 0.00 | 0.00 | 0.00 | 70 | 1021.3 |
| 20260830225905 | 83 | 130 | 1.0 | 2.0 | 0.00 | 0.00 | 0.00 | 70 | 1021.3 |
| 20260830225405 | 83 | 109 | 1.0 | 2.0 | 0.00 | 0.00 | 0.00 | 70 | 1021.2 |
| 20260830224901 | 83 | 68 | 1.0 | 2.0 | 0.00 | 0.00 | 0.00 | 69 | 1021.3 |
| 20260830224402 | 83 | 127 | 0.0 | 2.0 | 0.00 | 0.00 | 0.00 | 70 | 1021.3 |
| 20260830224231 | 83 | 127 | 0.0 | 1.0 | 0.00 | 0.00 | 0.00 | 69 | 1021.3 |
| 20260830223401 | 83 | 127 | 0.0 | 1.0 | 0.00 | 0.00 | 0.00 | 69 | 1021.3 |
| 20260830222859 | 83 | 127 | 1.0 | 2.0 | 0.00 | 0.00 | 0.00 | 69 | 1021.4 |
| 20260830222719 | 83 | 127 | 1.0 | 2.0 | 0.00 | 0.00 | 0.00 | 69 | 1021.3 |
| 20260830221851 | 83 | 127 | 1.0 | 2.0 | 0.00 | 0.00 | 0.00 | 68 | 1021.3 |
| 20260830221728 | 84 | 127 | 1.0 | 2.0 | 0.00 | 0.00 | 0.00 | 68 | 1021.2 |
| 20260830220843 | 84 | 127 | 1.0 | 2.0 | 0.00 | 0.00 | 0.00 | 68 | 1021.2 |
| 20260830220409 | 85 | 127 | 2.0 | 4.0 | 0.00 | 0.00 | 0.00 | 66 | 1021.2 |
| 20260830220357 | 85 | 119 | 2.0 | 3.0 | 0.00 | 0.00 | 0.00 | 67 | 1021.2 |
| 20260830220350 | 84 | 115 | 1.0 | 2.0 | 0.00 | 0.00 | 0.00 | 68 | 1021.2 |
| 20260830214844 | 85 | 135 | 1.0 | 4.0 | 0.00 | 0.00 | 0.00 | 67 | 1021.2 |